,,,PA_Meas_PMT16A,,PR_Meas_QMR101_102,,RH_Meas_QMH101,,SR_Meas_QMS101,,TA_Meas_QMH101,,GenWind,,GenWind,
date,time,status,PA,status,PR,status,RH,status,SR,status,TA,status,DirAvg,status,SpdAvg,
2009-08-04, 00:00:04,VALID,1009.56,VALID,0,VALID,92.4851,VALID,0,VALID,24.6099,VALID,194,VALID,0.156641,
2009-08-04, 00:01:04,VALID,1009.52,VALID,0,VALID,92.7215,VALID,0,VALID,24.5905,VALID,190,VALID,0.739453,
2009-08-04, 00:02:04,VALID,1009.51,VALID,0,VALID,92.8207,VALID,0,VALID,24.6118,VALID,190,VALID,0.276563,
2009-08-04, 00:03:04,VALID,1009.54,VALID,0,VALID,92.8817,VALID,0,VALID,24.5905,VALID,165,VALID,0.830078,
2009-08-04, 00:04:04,VALID,1009.57,VALID,0,VALID,92.9808,VALID,0,VALID,24.5923,VALID,160,VALID,0.434375,
2009-08-04, 00:05:04,VALID,1009.55,VALID,0,VALID,93.1562,VALID,0,VALID,24.5905,VALID,154,VALID,0.433984,
2009-08-04, 00:06:04,VALID,1009.54,VALID,0,VALID,93.2172,VALID,0.105969,VALID,24.6471,VALID,215,VALID,0.708594,
2009-08-04, 00:07:04,VALID,1009.53,VALID,0,VALID,92.7978,VALID,0.105969,VALID,24.6471,VALID,171,VALID,0.420312,
2009-08-04, 00:08:04,VALID,1009.5,VALID,0,VALID,92.691,VALID,0.105969,VALID,24.6684,VALID,171,VALID,0.0664063,
2009-08-04, 00:09:04,VALID,1009.5,VALID,0,VALID,92.6529,VALID,0.105969,VALID,24.6276,VALID,168,VALID,0.130859,
2009-08-04, 00:10:04,VALID,1009.49,VALID,0,VALID,92.5385,VALID,0.105969,VALID,24.6081,VALID,156,VALID,0.339453,
2009-08-04, 00:11:04,VALID,1009.5,VALID,0,VALID,92.5995,VALID,0.105969,VALID,24.5886,VALID,153,VALID,0.213672,
2009-08-04, 00:12:04,VALID,1009.55,VALID,0,VALID,92.63,VALID,0,VALID,24.5496,VALID,153,VALID,0.166016,
2009-08-04, 00:13:04,VALID,1009.54,VALID,0,VALID,92.6224,VALID,0,VALID,24.5515,VALID,153,VALID,0.116406,
2009-08-04, 00:14:04,VALID,1009.59,VALID,0,VALID,92.8664,VALID,0.105969,VALID,24.5106,VALID,153,VALID,0.116797,
2009-08-04, 00:15:04,VALID,1009.55,VALID,0,VALID,93.0494,VALID,0.105969,VALID,24.4911,VALID,153,VALID,0,
2009-08-04, 00:16:04,VALID,1009.54,VALID,0,VALID,93.2096,VALID,0.105969,VALID,24.4911,VALID,153,VALID,0,
2009-08-04, 00:17:04,VALID,1009.49,VALID,0,VALID,93.385,VALID,0.105969,VALID,24.4717,VALID,153,VALID,0,
2009-08-04, 00:18:04,VALID,1009.47,VALID,0,VALID,93.446,VALID,0.105969,VALID,24.4735,VALID,153,VALID,0.166406,
2009-08-04, 00:19:04,VALID,1009.45,VALID,0,VALID,93.4536,VALID,0.105969,VALID,24.454,VALID,153,VALID,0.15625,
2009-08-04, 00:20:04,VALID,1009.42,VALID,0,VALID,93.4231,VALID,0,VALID,24.4345,VALID,153,VALID,0.304297,
2009-08-04, 00:21:04,VALID,1009.38,VALID,0,VALID,93.2401,VALID,0,VALID,24.3956,VALID,153,VALID,0.00117188,
2009-08-04, 00:22:04,VALID,1009.39,VALID,0,VALID,93.3545,VALID,0.105969,VALID,24.3956,VALID,153,VALID,0.159766,
2009-08-04, 00:23:04,VALID,1009.4,VALID,0,VALID,93.4536,VALID,0.105969,VALID,24.3956,VALID,153,VALID,0.164063,
2009-08-04, 00:24:04,VALID,1009.4,VALID,0,VALID,93.5299,VALID,0,VALID,24.3761,VALID,153,VALID,0.00195313,
2009-08-04, 00:25:04,VALID,1009.37,VALID,0,VALID,93.6442,VALID,0.105969,VALID,24.3547,VALID,153,VALID,0.0917969,
2009-08-04, 00:26:04,VALID,1009.35,VALID,0,VALID,93.5451,VALID,0.105969,VALID,24.3352,VALID,153,VALID,0.0371094,
2009-08-04, 00:27:04,VALID,1009.37,VALID,0,VALID,93.4994,VALID,0.105969,VALID,24.3158,VALID,153,VALID,0.0195313,
2009-08-04, 00:28:04,VALID,1009.39,VALID,0,VALID,93.7129,VALID,0.105969,VALID,24.3352,VALID,153,VALID,0,
2009-08-04, 00:29:04,VALID,1009.37,VALID,0,VALID,93.873,VALID,0,VALID,24.3352,VALID,153,VALID,0,
2009-08-04, 00:30:04,VALID,1009.36,VALID,0,VALID,94.0027,VALID,0,VALID,24.3566,VALID,153,VALID,0,
2009-08-04, 00:31:04,VALID,1009.34,VALID,0,VALID,94.1171,VALID,0.105969,VALID,24.3352,VALID,153,VALID,0,
2009-08-04, 00:32:04,VALID,1009.31,VALID,0,VALID,94.1933,VALID,0.105969,VALID,24.3547,VALID,153,VALID,0,
2009-08-04, 00:33:04,VALID,1009.29,VALID,0,VALID,94.0408,VALID,0.105969,VALID,24.3158,VALID,153,VALID,0,
2009-08-04, 00:34:04,VALID,1009.28,VALID,0,VALID,93.4612,VALID,0.105969,VALID,24.2183,VALID,153,VALID,0,
2009-08-04, 00:35:04,VALID,1009.26,VALID,0,VALID,93.1181,VALID,0.105969,VALID,24.0819,VALID,153,VALID,0,
2009-08-04, 00:36:04,VALID,1009.25,VALID,0,VALID,93.0876,VALID,0.105969,VALID,23.9845,VALID,153,VALID,0,
2009-08-04, 00:37:04,VALID,1009.24,VALID,0,VALID,93.446,VALID,0.105969,VALID,23.926,VALID,153,VALID,0,
2009-08-04, 00:38:04,VALID,1009.22,VALID,0,VALID,94.0408,VALID,0.105969,VALID,23.9065,VALID,153,VALID,0,
2009-08-04, 00:39:04,VALID,1009.22,VALID,0,VALID,94.3763,VALID,0,VALID,23.8676,VALID,153,VALID,0,
2009-08-04, 00:40:04,VALID,1009.22,VALID,0,VALID,94.5212,VALID,0.105969,VALID,23.8286,VALID,153,VALID,0,
2009-08-04, 00:41:04,VALID,1009.18,VALID,0,VALID,94.6661,VALID,0.105969,VALID,23.8109,VALID,153,VALID,0.210547,
2009-08-04, 00:42:04,VALID,1009.17,VALID,0,VALID,94.9559,VALID,0.105969,VALID,23.7701,VALID,153,VALID,0.208984,
2009-08-04, 00:43:04,VALID,1009.15,VALID,0,VALID,95.0779,VALID,0.105969,VALID,23.7117,VALID,153,VALID,0,
2009-08-04, 00:44:04,VALID,1009.15,VALID,0,VALID,95.0931,VALID,0,VALID,23.6532,VALID,153,VALID,0,
2009-08-04, 00:45:04,VALID,1009.14,VALID,0,VALID,94.8568,VALID,0.105969,VALID,23.5169,VALID,153,VALID,0.280469,
2009-08-04, 00:46:04,VALID,1009.12,VALID,0,VALID,95.1084,VALID,0.105969,VALID,23.5169,VALID,153,VALID,0.278516,
2009-08-04, 00:47:04,VALID,1009.13,VALID,0,VALID,95.3982,VALID,0,VALID,23.5169,VALID,153,VALID,0.241016,
2009-08-04, 00:48:04,VALID,1009.16,VALID,0,VALID,95.5583,VALID,0.105969,VALID,23.4974,VALID,153,VALID,0,
2009-08-04, 00:49:04,VALID,1009.15,VALID,0,VALID,95.5736,VALID,0.105969,VALID,23.4584,VALID,153,VALID,0,
2009-08-04, 00:50:04,VALID,1009.13,VALID,0,VALID,95.6041,VALID,0,VALID,23.4,VALID,153,VALID,0,
2009-08-04, 00:51:04,VALID,1009.12,VALID,0,VALID,95.7108,VALID,0,VALID,23.4017,VALID,153,VALID,0,
2009-08-04, 00:52:04,VALID,1009.12,VALID,0,VALID,95.81,VALID,0.105969,VALID,23.4017,VALID,153,VALID,0.228906,
2009-08-04, 00:53:04,VALID,1009.13,VALID,0,VALID,95.9091,VALID,0.105969,VALID,23.3628,VALID,153,VALID,0.128906,
2009-08-04, 00:54:04,VALID,1009.11,VALID,0,VALID,95.9625,VALID,0,VALID,23.322,VALID,153,VALID,0.0558594,
2009-08-04, 00:55:04,VALID,1009.07,VALID,0,VALID,96.0387,VALID,0.105969,VALID,23.3026,VALID,153,VALID,0,
2009-08-04, 00:56:04,VALID,1009.1,VALID,0,VALID,96.0692,VALID,0.105969,VALID,23.2636,VALID,74,VALID,0,
2009-08-04, 00:57:04,VALID,1009.09,VALID,0,VALID,96.115,VALID,0,VALID,23.2441,VALID,74,VALID,0,
2009-08-04, 00:58:04,VALID,1009.08,VALID,0,VALID,96.1302,VALID,0,VALID,23.2246,VALID,74,VALID,0,
2009-08-04, 00:59:04,VALID,1009.07,VALID,0,VALID,96.1989,VALID,0,VALID,23.2069,VALID,74,VALID,0,
2009-08-04, 01:00:04,VALID,1009.05,VALID,0,VALID,96.2065,VALID,0,VALID,23.1679,VALID,74,VALID,0,
2009-08-04, 01:01:04,VALID,1009.06,VALID,0,VALID,96.1989,VALID,0,VALID,23.129,VALID,74,VALID,0,
2009-08-04, 01:02:04,VALID,1009.07,VALID,0,VALID,96.2294,VALID,0.105969,VALID,23.0883,VALID,74,VALID,0,
2009-08-04, 01:03:04,VALID,1009.05,VALID,0,VALID,96.2523,VALID,0,VALID,23.0688,VALID,74,VALID,0,
2009-08-04, 01:04:04,VALID,1009.06,VALID,0,VALID,96.2599,VALID,0,VALID,23.0511,VALID,74,VALID,0,
2009-08-04, 01:05:04,VALID,1009.04,VALID,0,VALID,96.3133,VALID,0,VALID,23.0103,VALID,74,VALID,0,
2009-08-04, 01:06:04,VALID,1009.08,VALID,0,VALID,96.3743,VALID,0.105969,VALID,23.0316,VALID,74,VALID,0,
2009-08-04, 01:07:04,VALID,1009.07,VALID,0,VALID,96.3819,VALID,0,VALID,22.9926,VALID,74,VALID,0,
2009-08-04, 01:08:04,VALID,1009.09,VALID,0,VALID,96.42,VALID,0,VALID,22.9536,VALID,74,VALID,0,
2009-08-04, 01:09:04,VALID,1009.09,VALID,0,VALID,96.4277,VALID,0,VALID,22.9342,VALID,74,VALID,0,
2009-08-04, 01:10:04,VALID,1009.09,VALID,0,VALID,96.481,VALID,0,VALID,22.9147,VALID,74,VALID,0,
2009-08-04, 01:11:04,VALID,1009.08,VALID,0,VALID,96.542,VALID,0,VALID,22.8952,VALID,74,VALID,0,
2009-08-04, 01:12:04,VALID,1009.07,VALID,0,VALID,96.5878,VALID,0,VALID,22.8952,VALID,74,VALID,0,
2009-08-04, 01:13:04,VALID,1009.06,VALID,0,VALID,96.6183,VALID,0.105969,VALID,22.8545,VALID,74,VALID,0,
2009-08-04, 01:14:04,VALID,1009.05,VALID,0,VALID,96.6335,VALID,0,VALID,22.8562,VALID,74,VALID,0,
2009-08-04, 01:15:04,VALID,1009.05,VALID,0,VALID,96.664,VALID,0,VALID,22.8368,VALID,74,VALID,0,
2009-08-04, 01:16:04,VALID,1009.08,VALID,0,VALID,96.6793,VALID,0,VALID,22.8173,VALID,74,VALID,0,
2009-08-04, 01:17:04,VALID,1009.08,VALID,0,VALID,96.664,VALID,0,VALID,22.7783,VALID,74,VALID,0,
2009-08-04, 01:18:04,VALID,1009.1,VALID,0,VALID,96.6869,VALID,0.105969,VALID,22.7376,VALID,74,VALID,0,
2009-08-04, 01:19:04,VALID,1009.09,VALID,0,VALID,96.7403,VALID,0,VALID,22.7588,VALID,74,VALID,0,
2009-08-04, 01:20:04,VALID,1009.1,VALID,0,VALID,96.7784,VALID,0.105969,VALID,22.7588,VALID,74,VALID,0,
2009-08-04, 01:21:04,VALID,1009.1,VALID,0,VALID,96.7937,VALID,0,VALID,22.7394,VALID,74,VALID,0,
2009-08-04, 01:22:04,VALID,1009.09,VALID,0,VALID,96.8242,VALID,0,VALID,22.7394,VALID,74,VALID,0,
2009-08-04, 01:23:04,VALID,1009.11,VALID,0,VALID,96.8699,VALID,0,VALID,22.7394,VALID,74,VALID,0,
2009-08-04, 01:24:04,VALID,1009.09,VALID,0,VALID,96.8928,VALID,0,VALID,22.7394,VALID,74,VALID,0,
2009-08-04, 01:25:04,VALID,1009.1,VALID,0,VALID,96.931,VALID,0,VALID,22.7199,VALID,74,VALID,0,
2009-08-04, 01:26:04,VALID,1009.09,VALID,0,VALID,96.931,VALID,0,VALID,22.7004,VALID,74,VALID,0,
2009-08-04, 01:27:04,VALID,1009.12,VALID,0,VALID,96.9462,VALID,0,VALID,22.7004,VALID,74,VALID,0,
2009-08-04, 01:28:04,VALID,1009.1,VALID,0,VALID,96.9691,VALID,0,VALID,22.6809,VALID,74,VALID,0,
2009-08-04, 01:29:04,VALID,1009.04,VALID,0,VALID,96.9767,VALID,0.105969,VALID,22.6809,VALID,74,VALID,0,
2009-08-04, 01:30:04,VALID,1009.03,VALID,0,VALID,97.0072,VALID,0,VALID,22.6809,VALID,74,VALID,0,
2009-08-04, 01:31:04,VALID,1009.03,VALID,0,VALID,97.0301,VALID,0,VALID,22.642,VALID,74,VALID,0,
2009-08-04, 01:32:04,VALID,1009,VALID,0,VALID,97.0148,VALID,0.105969,VALID,22.642,VALID,74,VALID,0,
2009-08-04, 01:33:04,VALID,1008.99,VALID,0,VALID,97.0453,VALID,0.105969,VALID,22.5623,VALID,74,VALID,0,
2009-08-04, 01:34:04,VALID,1008.98,VALID,0,VALID,97.0301,VALID,0,VALID,22.564,VALID,74,VALID,0,
2009-08-04, 01:35:04,VALID,1009.01,VALID,0,VALID,97.0377,VALID,0,VALID,22.5429,VALID,74,VALID,0,
2009-08-04, 01:36:04,VALID,1008.98,VALID,0,VALID,97.0377,VALID,0,VALID,22.564,VALID,74,VALID,0,
2009-08-04, 01:37:04,VALID,1008.97,VALID,0,VALID,97.0606,VALID,0,VALID,22.5429,VALID,74,VALID,0,
2009-08-04, 01:38:04,VALID,1008.97,VALID,0,VALID,97.0682,VALID,0.105969,VALID,22.5251,VALID,74,VALID,0,
2009-08-04, 01:39:04,VALID,1008.96,VALID,0,VALID,97.0758,VALID,0.105969,VALID,22.5039,VALID,74,VALID,0,
2009-08-04, 01:40:04,VALID,1008.98,VALID,0,VALID,97.0911,VALID,0.105969,VALID,22.5056,VALID,74,VALID,0,
2009-08-04, 01:41:04,VALID,1008.96,VALID,0,VALID,97.0606,VALID,0.105969,VALID,22.4455,VALID,74,VALID,0,
2009-08-04, 01:42:04,VALID,1008.97,VALID,0,VALID,97.0911,VALID,0.105969,VALID,22.4455,VALID,74,VALID,0,
2009-08-04, 01:43:04,VALID,1008.95,VALID,0,VALID,97.114,VALID,0.105969,VALID,22.426,VALID,74,VALID,0,
2009-08-04, 01:44:04,VALID,1008.98,VALID,0,VALID,97.1216,VALID,0.105969,VALID,22.426,VALID,74,VALID,0,
2009-08-04, 01:45:04,VALID,1008.95,VALID,0,VALID,97.1292,VALID,0.105969,VALID,22.426,VALID,74,VALID,0,
2009-08-04, 01:46:04,VALID,1009,VALID,0,VALID,97.1674,VALID,0,VALID,22.4065,VALID,74,VALID,0,
2009-08-04, 01:47:04,VALID,1008.97,VALID,0,VALID,97.175,VALID,0,VALID,22.4082,VALID,74,VALID,0,
2009-08-04, 01:48:04,VALID,1008.98,VALID,0,VALID,97.1597,VALID,0.105969,VALID,22.387,VALID,74,VALID,0,
2009-08-04, 01:49:04,VALID,1008.99,VALID,0,VALID,97.1826,VALID,0.105969,VALID,22.3887,VALID,74,VALID,0,
2009-08-04, 01:50:04,VALID,1008.99,VALID,0,VALID,97.1902,VALID,0.105969,VALID,22.3676,VALID,74,VALID,0,
2009-08-04, 01:51:04,VALID,1008.99,VALID,0,VALID,97.1979,VALID,0,VALID,22.371,VALID,74,VALID,0,
2009-08-04, 01:52:04,VALID,1009,VALID,0,VALID,97.2284,VALID,0,VALID,22.3498,VALID,74,VALID,0,
2009-08-04, 01:53:04,VALID,1009,VALID,0,VALID,97.2284,VALID,0,VALID,22.3303,VALID,74,VALID,0,
2009-08-04, 01:54:04,VALID,1009.01,VALID,0,VALID,97.236,VALID,0,VALID,22.3515,VALID,74,VALID,0,
2009-08-04, 01:55:04,VALID,1009.03,VALID,0,VALID,97.236,VALID,0,VALID,22.2914,VALID,74,VALID,0,
2009-08-04, 01:56:04,VALID,1009.02,VALID,0,VALID,97.2512,VALID,0,VALID,22.293,VALID,74,VALID,0,
2009-08-04, 01:57:04,VALID,1009.04,VALID,0,VALID,97.2589,VALID,0,VALID,22.2719,VALID,74,VALID,0,
2009-08-04, 01:58:04,VALID,1009.07,VALID,0,VALID,97.2817,VALID,0,VALID,22.2524,VALID,74,VALID,0,
2009-08-04, 01:59:05,VALID,1009.07,VALID,0,VALID,97.2665,VALID,0,VALID,22.2736,VALID,74,VALID,0,
2009-08-04, 02:00:05,VALID,1009.07,VALID,0,VALID,97.2894,VALID,0,VALID,22.2541,VALID,74,VALID,0,
2009-08-04, 02:01:05,VALID,1009.02,VALID,0,VALID,97.297,VALID,0,VALID,22.2134,VALID,74,VALID,0,
2009-08-04, 02:02:05,VALID,1009.01,VALID,0,VALID,97.3046,VALID,0,VALID,22.2346,VALID,74,VALID,0,
2009-08-04, 02:03:05,VALID,1009.01,VALID,0,VALID,97.3275,VALID,0,VALID,22.2134,VALID,74,VALID,0,
2009-08-04, 02:04:05,VALID,1009.01,VALID,0,VALID,97.3199,VALID,0,VALID,22.194,VALID,74,VALID,0,
2009-08-04, 02:05:05,VALID,1008.99,VALID,0,VALID,97.3427,VALID,0,VALID,22.2151,VALID,74,VALID,0,
2009-08-04, 02:06:05,VALID,1008.95,VALID,0,VALID,97.3504,VALID,0,VALID,22.1957,VALID,74,VALID,0,
2009-08-04, 02:07:05,VALID,1008.94,VALID,0,VALID,97.3732,VALID,0,VALID,22.1355,VALID,74,VALID,0,
2009-08-04, 02:08:05,VALID,1008.89,VALID,0,VALID,97.3504,VALID,0,VALID,22.1355,VALID,74,VALID,0,
2009-08-04, 02:09:05,VALID,1008.87,VALID,0,VALID,97.3656,VALID,0,VALID,22.1355,VALID,74,VALID,0,
2009-08-04, 02:10:05,VALID,1008.86,VALID,0,VALID,97.3809,VALID,0,VALID,22.1355,VALID,74,VALID,0,
2009-08-04, 02:11:05,VALID,1008.85,VALID,0,VALID,97.4037,VALID,0,VALID,22.1161,VALID,74,VALID,0,
2009-08-04, 02:12:05,VALID,1008.82,VALID,0,VALID,97.4037,VALID,0,VALID,22.1177,VALID,74,VALID,0,
2009-08-04, 02:13:05,VALID,1008.79,VALID,0,VALID,97.4114,VALID,0,VALID,22.1161,VALID,74,VALID,0,
2009-08-04, 02:14:05,VALID,1008.76,VALID,0,VALID,97.4266,VALID,0,VALID,22.1161,VALID,74,VALID,0,
2009-08-04, 02:15:05,VALID,1008.72,VALID,0,VALID,97.4266,VALID,0,VALID,22.1161,VALID,74,VALID,0,
2009-08-04, 02:16:05,VALID,1008.68,VALID,0,VALID,97.4571,VALID,0,VALID,22.1372,VALID,74,VALID,0,
2009-08-04, 02:17:05,VALID,1008.61,VALID,0,VALID,97.4495,VALID,0,VALID,22.1177,VALID,74,VALID,0,
2009-08-04, 02:18:05,VALID,1008.61,VALID,0,VALID,97.4876,VALID,0,VALID,22.1177,VALID,74,VALID,0,
2009-08-04, 02:19:05,VALID,1008.59,VALID,0,VALID,97.4648,VALID,0,VALID,22.0966,VALID,74,VALID,0,
2009-08-04, 02:20:05,VALID,1008.56,VALID,0,VALID,97.4876,VALID,0,VALID,22.0983,VALID,74,VALID,0,
2009-08-04, 02:21:05,VALID,1008.55,VALID,0,VALID,97.4953,VALID,0.105969,VALID,22.0966,VALID,74,VALID,0,
2009-08-04, 02:22:05,VALID,1008.58,VALID,0,VALID,97.5029,VALID,0.105969,VALID,22.0754,VALID,74,VALID,0,
2009-08-04, 02:23:05,VALID,1008.58,VALID,0,VALID,97.5181,VALID,0.105969,VALID,22.056,VALID,74,VALID,0,
2009-08-04, 02:24:05,VALID,1008.59,VALID,0,VALID,97.5258,VALID,0.105969,VALID,22.056,VALID,74,VALID,0,
2009-08-04, 02:25:05,VALID,1008.57,VALID,0,VALID,97.541,VALID,0.105969,VALID,22.056,VALID,74,VALID,0,
2009-08-04, 02:26:05,VALID,1008.55,VALID,0,VALID,97.5334,VALID,0,VALID,22.0382,VALID,74,VALID,0,
2009-08-04, 02:27:05,VALID,1008.56,VALID,0,VALID,97.5563,VALID,0.105969,VALID,22.0365,VALID,74,VALID,0,
2009-08-04, 02:28:05,VALID,1008.55,VALID,0,VALID,97.5639,VALID,0.105969,VALID,22.0576,VALID,74,VALID,0,
2009-08-04, 02:29:05,VALID,1008.56,VALID,0,VALID,97.5715,VALID,0.105969,VALID,22.0365,VALID,74,VALID,0,
2009-08-04, 02:30:05,VALID,1008.56,VALID,0,VALID,97.5639,VALID,0.105969,VALID,22.017,VALID,74,VALID,0,
2009-08-04, 02:31:05,VALID,1008.53,VALID,0,VALID,97.5791,VALID,0.105969,VALID,22.0365,VALID,74,VALID,0,
2009-08-04, 02:32:05,VALID,1008.51,VALID,0,VALID,97.602,VALID,0.105969,VALID,22.0365,VALID,74,VALID,0,
2009-08-04, 02:33:05,VALID,1008.53,VALID,0,VALID,97.6096,VALID,0.105969,VALID,22.017,VALID,74,VALID,0,
2009-08-04, 02:34:05,VALID,1008.55,VALID,0,VALID,97.6325,VALID,0.105969,VALID,22.0187,VALID,74,VALID,0,
2009-08-04, 02:35:05,VALID,1008.59,VALID,0,VALID,97.6401,VALID,0.105969,VALID,21.9391,VALID,74,VALID,0,
2009-08-04, 02:36:05,VALID,1008.57,VALID,0,VALID,97.6249,VALID,0,VALID,21.9213,VALID,74,VALID,0,
2009-08-04, 02:37:05,VALID,1008.59,VALID,0,VALID,97.6325,VALID,0,VALID,21.9619,VALID,74,VALID,0,
2009-08-04, 02:38:05,VALID,1008.58,VALID,0,VALID,97.6249,VALID,0,VALID,21.9408,VALID,74,VALID,0,
2009-08-04, 02:39:05,VALID,1008.59,VALID,0,VALID,97.6554,VALID,0,VALID,21.9603,VALID,74,VALID,0,
2009-08-04, 02:40:05,VALID,1008.57,VALID,0,VALID,97.6706,VALID,0,VALID,22.0009,VALID,74,VALID,0,
2009-08-04, 02:41:05,VALID,1008.52,VALID,0,VALID,97.6783,VALID,0,VALID,21.9797,VALID,74,VALID,0,
2009-08-04, 02:42:05,VALID,1008.51,VALID,0,VALID,97.7012,VALID,0,VALID,21.9797,VALID,74,VALID,0,
2009-08-04, 02:43:05,VALID,1008.55,VALID,0,VALID,97.7012,VALID,0,VALID,22.0009,VALID,74,VALID,0,
2009-08-04, 02:44:05,VALID,1008.53,VALID,0,VALID,97.7088,VALID,0,VALID,21.9797,VALID,74,VALID,0,
2009-08-04, 02:45:05,VALID,1008.52,VALID,0,VALID,97.7088,VALID,0,VALID,21.9814,VALID,74,VALID,0,
2009-08-04, 02:46:05,VALID,1008.52,VALID,0,VALID,97.7164,VALID,0,VALID,21.9797,VALID,74,VALID,0,
2009-08-04, 02:47:05,VALID,1008.54,VALID,0,VALID,97.7088,VALID,0,VALID,21.9603,VALID,74,VALID,0,
2009-08-04, 02:48:05,VALID,1008.5,VALID,0,VALID,97.7545,VALID,0,VALID,21.9408,VALID,74,VALID,0,
2009-08-04, 02:49:05,VALID,1008.48,VALID,0,VALID,97.7317,VALID,0,VALID,21.9018,VALID,74,VALID,0,
2009-08-04, 02:50:05,VALID,1008.49,VALID,0,VALID,97.7393,VALID,0,VALID,21.9018,VALID,74,VALID,0,
2009-08-04, 02:51:05,VALID,1008.48,VALID,0,VALID,97.7469,VALID,0.105969,VALID,21.9213,VALID,74,VALID,0,
2009-08-04, 02:52:05,VALID,1008.47,VALID,0,VALID,97.7622,VALID,0,VALID,21.9213,VALID,74,VALID,0,
2009-08-04, 02:53:05,VALID,1008.45,VALID,0,VALID,97.7774,VALID,0,VALID,21.923,VALID,74,VALID,0,
2009-08-04, 02:54:05,VALID,1008.44,VALID,0,VALID,97.7622,VALID,0,VALID,21.9018,VALID,74,VALID,0,
2009-08-04, 02:55:05,VALID,1008.41,VALID,0,VALID,97.7698,VALID,0,VALID,21.9018,VALID,74,VALID,0,
2009-08-04, 02:56:05,VALID,1008.41,VALID,0,VALID,97.7698,VALID,0,VALID,21.9018,VALID,74,VALID,0,
2009-08-04, 02:57:05,VALID,1008.39,VALID,0,VALID,97.7927,VALID,0,VALID,21.8629,VALID,74,VALID,0,
2009-08-04, 02:58:05,VALID,1008.4,VALID,0,VALID,97.8003,VALID,0,VALID,21.8256,VALID,74,VALID,0,
2009-08-04, 02:59:05,VALID,1008.39,VALID,0,VALID,97.8079,VALID,0,VALID,21.8061,VALID,74,VALID,0,
2009-08-04, 03:00:05,VALID,1008.4,VALID,0,VALID,97.8003,VALID,0,VALID,21.7655,VALID,74,VALID,0,
2009-08-04, 03:01:05,VALID,1008.43,VALID,0,VALID,97.8155,VALID,0,VALID,21.746,VALID,74,VALID,0,
2009-08-04, 03:02:05,VALID,1008.44,VALID,0,VALID,97.8003,VALID,0,VALID,21.7655,VALID,74,VALID,0,
2009-08-04, 03:03:05,VALID,1008.42,VALID,0,VALID,97.8003,VALID,0,VALID,21.746,VALID,74,VALID,0,
2009-08-04, 03:04:05,VALID,1008.44,VALID,0,VALID,97.8003,VALID,0,VALID,21.7477,VALID,74,VALID,0,
2009-08-04, 03:05:05,VALID,1008.45,VALID,0,VALID,97.8003,VALID,0,VALID,21.7266,VALID,74,VALID,0,
2009-08-04, 03:06:05,VALID,1008.41,VALID,0,VALID,97.785,VALID,0,VALID,21.7266,VALID,74,VALID,0,
2009-08-04, 03:07:05,VALID,1008.4,VALID,0,VALID,97.785,VALID,0,VALID,21.8045,VALID,68,VALID,0,
2009-08-04, 03:08:05,VALID,1008.42,VALID,0,VALID,97.8003,VALID,0,VALID,21.8645,VALID,68,VALID,0,
2009-08-04, 03:09:05,VALID,1008.43,VALID,0,VALID,97.846,VALID,0,VALID,21.8629,VALID,68,VALID,0,
2009-08-04, 03:10:05,VALID,1008.4,VALID,0,VALID,97.8155,VALID,0,VALID,21.8629,VALID,68,VALID,0,
2009-08-04, 03:11:05,VALID,1008.39,VALID,0,VALID,97.8765,VALID,0,VALID,21.8434,VALID,68,VALID,0,
2009-08-04, 03:12:05,VALID,1008.39,VALID,0,VALID,97.8613,VALID,0,VALID,21.7655,VALID,68,VALID,0,
2009-08-04, 03:13:05,VALID,1008.42,VALID,0,VALID,97.8765,VALID,0,VALID,21.7071,VALID,68,VALID,0,
2009-08-04, 03:14:05,VALID,1008.44,VALID,0,VALID,97.8384,VALID,0,VALID,21.7282,VALID,68,VALID,0,
2009-08-04, 03:15:05,VALID,1008.43,VALID,0,VALID,97.846,VALID,0,VALID,21.7087,VALID,68,VALID,0,
2009-08-04, 03:16:05,VALID,1008.42,VALID,0,VALID,97.8537,VALID,0,VALID,21.6876,VALID,68,VALID,0,
2009-08-04, 03:17:05,VALID,1008.41,VALID,0,VALID,97.8613,VALID,0,VALID,21.6681,VALID,68,VALID,0,
2009-08-04, 03:18:05,VALID,1008.4,VALID,0,VALID,97.846,VALID,0,VALID,21.6292,VALID,68,VALID,0,
2009-08-04, 03:19:05,VALID,1008.4,VALID,0,VALID,97.8537,VALID,0,VALID,21.6308,VALID,68,VALID,0,
2009-08-04, 03:20:05,VALID,1008.41,VALID,0,VALID,97.8537,VALID,0,VALID,21.5919,VALID,68,VALID,0,
2009-08-04, 03:21:05,VALID,1008.42,VALID,0,VALID,97.8613,VALID,0,VALID,21.5724,VALID,68,VALID,0,
2009-08-04, 03:22:05,VALID,1008.42,VALID,0,VALID,97.8689,VALID,0,VALID,21.5335,VALID,68,VALID,0,
2009-08-04, 03:23:05,VALID,1008.43,VALID,0,VALID,97.8537,VALID,0,VALID,21.5335,VALID,68,VALID,0,
2009-08-04, 03:24:05,VALID,1008.45,VALID,0,VALID,97.8765,VALID,0,VALID,21.514,VALID,68,VALID,0,
2009-08-04, 03:25:05,VALID,1008.45,VALID,0,VALID,97.8613,VALID,0,VALID,21.5335,VALID,68,VALID,0,
2009-08-04, 03:26:05,VALID,1008.48,VALID,0,VALID,97.8613,VALID,0,VALID,21.5318,VALID,68,VALID,0,
2009-08-04, 03:27:05,VALID,1008.46,VALID,0,VALID,97.8613,VALID,0,VALID,21.5513,VALID,68,VALID,0,
2009-08-04, 03:28:05,VALID,1008.45,VALID,0,VALID,97.8918,VALID,0,VALID,21.5919,VALID,68,VALID,0,
2009-08-04, 03:29:05,VALID,1008.43,VALID,0,VALID,97.8918,VALID,0,VALID,21.5919,VALID,68,VALID,0,
2009-08-04, 03:30:05,VALID,1008.42,VALID,0,VALID,97.8613,VALID,0,VALID,21.6114,VALID,68,VALID,0,
2009-08-04, 03:31:05,VALID,1008.43,VALID,0,VALID,97.8994,VALID,0,VALID,21.5708,VALID,68,VALID,0,
2009-08-04, 03:32:05,VALID,1008.47,VALID,0,VALID,97.8689,VALID,0,VALID,21.5708,VALID,68,VALID,0,
2009-08-04, 03:33:05,VALID,1008.5,VALID,0,VALID,97.8842,VALID,0,VALID,21.5919,VALID,68,VALID,0,
2009-08-04, 03:34:05,VALID,1008.49,VALID,0,VALID,97.8842,VALID,0,VALID,21.5724,VALID,68,VALID,0,
2009-08-04, 03:35:05,VALID,1008.5,VALID,0,VALID,97.8994,VALID,0,VALID,21.5513,VALID,68,VALID,0,
2009-08-04, 03:36:05,VALID,1008.52,VALID,0,VALID,97.8918,VALID,0,VALID,21.5529,VALID,68,VALID,0,
2009-08-04, 03:37:05,VALID,1008.55,VALID,0,VALID,97.8842,VALID,0,VALID,21.5513,VALID,68,VALID,0,
2009-08-04, 03:38:05,VALID,1008.54,VALID,0,VALID,97.8918,VALID,0,VALID,21.5724,VALID,68,VALID,0,
2009-08-04, 03:39:05,VALID,1008.49,VALID,0,VALID,97.9071,VALID,0,VALID,21.5724,VALID,68,VALID,0,
2009-08-04, 03:40:05,VALID,1008.51,VALID,0,VALID,97.9147,VALID,0,VALID,21.5724,VALID,68,VALID,0,
2009-08-04, 03:41:05,VALID,1008.5,VALID,0,VALID,97.9223,VALID,0,VALID,21.5335,VALID,68,VALID,0,
2009-08-04, 03:42:05,VALID,1008.52,VALID,0,VALID,97.8994,VALID,0,VALID,21.5335,VALID,68,VALID,0,
2009-08-04, 03:43:05,VALID,1008.54,VALID,0,VALID,97.9299,VALID,0,VALID,21.4734,VALID,68,VALID,0,
2009-08-04, 03:44:05,VALID,1008.54,VALID,0,VALID,97.8994,VALID,0,VALID,21.475,VALID,68,VALID,0,
2009-08-04, 03:45:05,VALID,1008.57,VALID,0,VALID,97.8918,VALID,0,VALID,21.4539,VALID,68,VALID,0,
2009-08-04, 03:46:05,VALID,1008.59,VALID,0,VALID,97.9147,VALID,0,VALID,21.4556,VALID,68,VALID,0,
2009-08-04, 03:47:05,VALID,1008.57,VALID,0,VALID,97.9147,VALID,0,VALID,21.4345,VALID,68,VALID,0,
2009-08-04, 03:48:05,VALID,1008.58,VALID,0,VALID,97.9376,VALID,0,VALID,21.4166,VALID,68,VALID,0,
2009-08-04, 03:49:05,VALID,1008.57,VALID,0,VALID,97.9147,VALID,0,VALID,21.4166,VALID,68,VALID,0,
2009-08-04, 03:50:05,VALID,1008.56,VALID,0,VALID,97.9299,VALID,0,VALID,21.3971,VALID,68,VALID,0,
2009-08-04, 03:51:05,VALID,1008.56,VALID,0,VALID,97.9299,VALID,0,VALID,21.3971,VALID,68,VALID,0,
2009-08-04, 03:52:05,VALID,1008.56,VALID,0,VALID,97.9376,VALID,0,VALID,21.3566,VALID,68,VALID,0,
2009-08-04, 03:53:05,VALID,1008.56,VALID,0,VALID,97.9299,VALID,0,VALID,21.3777,VALID,68,VALID,0,
2009-08-04, 03:54:05,VALID,1008.56,VALID,0,VALID,97.9452,VALID,0,VALID,21.3387,VALID,68,VALID,0,